Погода в Старомышастовской

Россия / Краснодарский край     45°20′24″N   39°04′36″E
темп.,
°C
ветер,
м/с
пор.,
м/с
влажн.,
%
обл.,
%
осадки,
мм/ч
давл.,
гПа
погр.,
м
17 мая, пн
пн1700:00+19ююв358986 0.0 100279
03:00+17з229199 0.0 100312
06:00+17юз4128394 0.9 1005374
09:00+21юз576798 1.1 1006607
12:00+23юз4558100 0.1 10061020
15:00+23з4362100 0.2 10071267
18:00+21з3471100 0.0 1007409
21:00+16зюз3585100 0.2 1010129
18 мая, вт
вт1800:00+14ююз2291100 0.0 101028
03:00+13ююз239396 0.0 101155
06:00+14ююз259190 0.0 1011136
09:00+18юз6871100 0.0 1011881
12:00+22юз685526 0.0 10111850
15:00+23ююз67513 0.0 10102062
18:00+21ююз46655 0.0 1010391
21:00+17ю3470100 0.0 101052
19 мая, ср
ср1900:00+15ю2282100 0.0 100918
03:00+15з4984100 0.4 1009300
06:00+14юз4894100 8.4 1010493
09:00+17юз697769 10.9 10111068
12:00+19юз10136317 0.5 10121661
15:00+19юз912636 1.3 10131652
18:00+16юз8127493 0.4 10141174
21:00+14ююз713755 0.4 1015739
20 мая, чт
чт2000:00+14юз614810 0.0 1015752
03:00+12юз411880 0.0 1015350
06:00+12ююз3688100 0.0 1015161
09:00+18зюз35610 0.0 1015740
12:00+21юз234883 0.0 10141269
15:00+23вюв4353100 0.0 10131217
18:00+20всв4869100 0.0 1012385
21:00+16всв412780 0.0 1011213
21 мая, пт
пт2100:00+14всв410825 0.0 1010167
03:00+13в34923 0.0 100965
06:00+14в24890 0.0 100990
09:00+22в3467100 0.0 1008301
12:00+27всв23520 0.0 1008583
15:00+30св22486 0.0 1008766
18:00+28св23655 0.0 1008108
21:00+21св33865 0.0 100820